date,time,SUV Intensity [MED/Hr],UV Index,Daily total [MED],Since Last [MED]
02/07/2022,00:09:54,0.000,0.0,0.0,0.0
02/07/2022,00:10:54,0.000,0.0,0.0,0.0
02/07/2022,00:11:54,-0.000,0.0,0.0,0.0
02/07/2022,00:12:54,-0.000,0.0,0.0,0.0
02/07/2022,00:13:55,0.000,0.0,0.0,0.0
02/07/2022,00:14:56,0.000,0.0,0.0,0.0
02/07/2022,00:15:55,0.000,0.0,0.0,0.0
02/07/2022,00:16:55,0.001,0.0,0.0,0.0
02/07/2022,00:17:55,0.001,0.0,0.0,0.0
02/07/2022,00:18:54,-0.001,0.0,0.0,0.0
02/07/2022,00:19:54,0.000,0.0,0.0,0.0
02/07/2022,00:20:55,0.000,0.0,0.0,0.0
02/07/2022,00:21:54,0.001,0.0,0.0,0.0
02/07/2022,00:22:55,0.000,0.0,0.0,0.0
02/07/2022,00:23:54,0.000,0.0,0.0,0.0
02/07/2022,00:25:03,-0.001,0.0,0.0,0.0
02/07/2022,00:25:55,0.000,0.0,0.0,0.0
02/07/2022,00:26:54,0.000,0.0,0.0,0.0
02/07/2022,00:27:54,0.000,0.0,0.0,0.0
02/07/2022,00:28:55,0.000,0.0,0.0,0.0
02/07/2022,00:29:54,0.000,0.0,0.0,0.0
02/07/2022,00:30:55,0.000,0.0,0.0,0.0
02/07/2022,00:31:54,0.000,0.0,0.0,0.0
02/07/2022,00:32:55,0.001,0.0,0.0,0.0
02/07/2022,00:33:55,-0.000,0.0,0.0,0.0
02/07/2022,00:34:54,-0.001,0.0,0.0,0.0
02/07/2022,00:35:55,-0.001,0.0,0.0,0.0
02/07/2022,00:36:55,0.001,0.0,0.0,0.0
02/07/2022,00:37:54,0.001,0.0,0.0,0.0
02/07/2022,00:38:55,0.000,0.0,0.0,0.0
02/07/2022,00:39:55,0.001,0.0,0.0,0.0
02/07/2022,00:41:02,0.000,0.0,0.0,0.0
02/07/2022,00:41:54,0.000,0.0,0.0,0.0
02/07/2022,00:42:54,-0.001,0.0,0.0,0.0
02/07/2022,00:43:54,-0.000,0.0,0.0,0.0
02/07/2022,00:44:54,0.000,0.0,0.0,0.0
02/07/2022,00:45:54,0.000,0.0,0.0,0.0
02/07/2022,00:46:54,-0.001,0.0,0.0,0.0
02/07/2022,00:47:55,0.000,0.0,0.0,0.0
02/07/2022,00:48:55,0.000,0.0,0.0,0.0
02/07/2022,00:49:54,0.000,0.0,0.0,0.0
02/07/2022,00:51:03,0.000,0.0,0.0,0.0
02/07/2022,00:51:55,-0.000,0.0,0.0,0.0
02/07/2022,00:52:54,0.000,0.0,0.0,0.0
02/07/2022,00:53:55,0.000,0.0,0.0,0.0
02/07/2022,00:54:54,0.000,0.0,0.0,0.0
02/07/2022,00:55:54,0.000,0.0,0.0,0.0
02/07/2022,00:56:54,-0.000,0.0,0.0,0.0
02/07/2022,00:57:55,-0.000,0.0,0.0,0.0
02/07/2022,00:58:55,0.000,0.0,0.0,0.0
02/07/2022,00:59:55,0.000,0.0,0.0,0.0
02/07/2022,01:00:54,0.000,0.0,0.0,0.0
02/07/2022,01:01:55,0.001,0.0,0.0,0.0
02/07/2022,01:02:54,0.001,0.0,0.0,0.0
02/07/2022,01:04:03,0.001,0.0,0.0,0.0
02/07/2022,01:04:54,0.001,0.0,0.0,0.0
02/07/2022,01:05:55,0.000,0.0,0.0,0.0
02/07/2022,01:06:55,0.001,0.0,0.0,0.0
02/07/2022,01:07:56,0.000,0.0,0.0,0.0
02/07/2022,01:08:55,0.000,0.0,0.0,0.0
02/07/2022,01:09:54,0.001,0.0,0.0,0.0
02/07/2022,01:10:54,0.001,0.0,0.0,0.0
02/07/2022,01:11:54,-0.000,0.0,0.0,0.0
02/07/2022,01:12:55,-0.000,0.0,0.0,0.0
02/07/2022,01:13:55,0.000,0.0,0.0,0.0
02/07/2022,01:14:54,0.000,0.0,0.0,0.0
02/07/2022,01:15:54,0.001,0.0,0.0,0.0
02/07/2022,01:16:56,0.001,0.0,0.0,0.0
02/07/2022,01:17:55,0.000,0.0,0.0,0.0
02/07/2022,01:18:55,0.001,0.0,0.0,0.0
02/07/2022,01:20:02,0.001,0.0,0.0,0.0
02/07/2022,01:20:55,0.000,0.0,0.0,0.0
02/07/2022,01:21:55,0.000,0.0,0.0,0.0
02/07/2022,01:22:55,0.001,0.0,0.0,0.0
02/07/2022,01:23:54,0.000,0.0,0.0,0.0
02/07/2022,01:24:55,0.000,0.0,0.0,0.0
02/07/2022,01:25:55,0.000,0.0,0.0,0.0
02/07/2022,01:26:54,0.000,0.0,0.0,0.0
02/07/2022,01:27:55,0.000,0.0,0.0,0.0
02/07/2022,01:28:54,0.000,0.0,0.0,0.0
02/07/2022,01:30:03,-0.000,0.0,0.0,0.0
02/07/2022,01:30:55,0.000,0.0,0.0,0.0
02/07/2022,01:31:54,0.000,0.0,0.0,0.0
02/07/2022,01:33:03,-0.001,0.0,0.0,0.0
02/07/2022,01:33:54,-0.000,0.0,0.0,0.0
02/07/2022,01:34:55,0.000,0.0,0.0,0.0
02/07/2022,01:35:55,0.001,0.0,0.0,0.0
02/07/2022,01:36:55,0.001,0.0,0.0,0.0
02/07/2022,01:37:55,0.000,0.0,0.0,0.0
02/07/2022,01:38:54,0.001,0.0,0.0,0.0
02/07/2022,01:39:54,0.000,0.0,0.0,0.0
02/07/2022,01:40:55,0.001,0.0,0.0,0.0
02/07/2022,01:41:55,0.000,0.0,0.0,0.0
02/07/2022,01:42:54,0.001,0.0,0.0,0.0
02/07/2022,01:43:55,0.000,0.0,0.0,0.0
02/07/2022,01:44:54,0.000,0.0,0.0,0.0
02/07/2022,01:45:54,0.000,0.0,0.0,0.0
02/07/2022,01:46:55,-0.001,0.0,0.0,0.0
02/07/2022,01:47:55,0.000,0.0,0.0,0.0
02/07/2022,01:48:55,0.002,0.0,0.0,0.0
02/07/2022,01:49:55,0.000,0.0,0.0,0.0
02/07/2022,01:50:55,-0.000,0.0,0.0,0.0
02/07/2022,01:51:55,-0.000,0.0,0.0,0.0
02/07/2022,01:53:03,0.001,0.0,0.0,0.0
02/07/2022,01:53:55,0.000,0.0,0.0,0.0
02/07/2022,01:54:55,0.000,0.0,0.0,0.0
02/07/2022,01:55:55,0.000,0.0,0.0,0.0
02/07/2022,01:56:54,0.000,0.0,0.0,0.0
02/07/2022,01:57:55,0.001,0.0,0.0,0.0
02/07/2022,01:58:55,0.000,0.0,0.0,0.0
02/07/2022,01:59:55,0.000,0.0,0.0,0.0
02/07/2022,02:00:54,0.001,0.0,0.0,0.0
02/07/2022,02:01:56,0.002,0.0,0.0,0.0
02/07/2022,02:03:03,-0.000,0.0,0.0,0.0
02/07/2022,02:03:54,0.000,0.0,0.0,0.0
02/07/2022,02:04:55,0.001,0.0,0.0,0.0
02/07/2022,02:06:03,0.000,0.0,0.0,0.0
02/07/2022,02:06:55,0.001,0.0,0.0,0.0
02/07/2022,02:07:55,-0.000,0.0,0.0,0.0
02/07/2022,02:08:55,0.001,0.0,0.0,0.0
02/07/2022,02:09:54,0.001,0.0,0.0,0.0
02/07/2022,02:10:55,0.001,0.0,0.0,0.0
02/07/2022,02:11:55,0.001,0.0,0.0,0.0
02/07/2022,02:12:55,0.000,0.0,0.0,0.0
02/07/2022,02:13:55,0.000,0.0,0.0,0.0
02/07/2022,02:14:54,0.001,0.0,0.0,0.0
02/07/2022,02:16:03,-0.001,0.0,0.0,0.0
02/07/2022,02:16:54,0.000,0.0,0.0,0.0
02/07/2022,02:17:55,0.000,0.0,0.0,0.0
02/07/2022,02:18:55,-0.001,0.0,0.0,0.0
02/07/2022,02:19:55,0.001,0.0,0.0,0.0
02/07/2022,02:20:55,0.000,0.0,0.0,0.0
02/07/2022,02:22:03,0.000,0.0,0.0,0.0
02/07/2022,02:22:55,0.000,0.0,0.0,0.0
02/07/2022,02:23:55,0.001,0.0,0.0,0.0
02/07/2022,02:24:55,0.000,0.0,0.0,0.0
02/07/2022,02:25:54,0.000,0.0,0.0,0.0
02/07/2022,02:26:55,0.001,0.0,0.0,0.0
02/07/2022,02:27:54,0.000,0.0,0.0,0.0
02/07/2022,02:29:03,0.000,0.0,0.0,0.0
02/07/2022,02:29:55,0.000,0.0,0.0,0.0
02/07/2022,02:30:54,0.000,0.0,0.0,0.0
02/07/2022,02:32:03,0.000,0.0,0.0,0.0
02/07/2022,02:32:55,0.000,0.0,0.0,0.0
02/07/2022,02:33:54,0.000,0.0,0.0,0.0
02/07/2022,02:34:54,0.001,0.0,0.0,0.0
02/07/2022,02:35:54,0.000,0.0,0.0,0.0
02/07/2022,02:37:03,0.001,0.0,0.0,0.0
02/07/2022,02:37:46,0.001,0.0,0.0,0.0
02/07/2022,02:38:56,-0.000,0.0,0.0,0.0
02/07/2022,02:39:54,0.000,0.0,0.0,0.0
02/07/2022,02:40:55,-0.001,0.0,0.0,0.0
02/07/2022,02:41:55,-0.000,0.0,0.0,0.0
02/07/2022,02:42:55,-0.001,0.0,0.0,0.0
02/07/2022,02:43:54,0.000,0.0,0.0,0.0
02/07/2022,02:45:03,0.001,0.0,0.0,0.0
02/07/2022,02:46:03,0.001,0.0,0.0,0.0
02/07/2022,02:46:54,0.000,0.0,0.0,0.0
02/07/2022,02:47:55,0.000,0.0,0.0,0.0
02/07/2022,02:48:55,0.001,0.0,0.0,0.0
02/07/2022,02:49:55,0.001,0.0,0.0,0.0
02/07/2022,02:50:55,0.001,0.0,0.0,0.0
02/07/2022,02:51:54,0.001,0.0,0.0,0.0
02/07/2022,02:52:55,0.000,0.0,0.0,0.0
02/07/2022,02:53:54,0.001,0.0,0.0,0.0
02/07/2022,02:54:55,-0.001,0.0,0.0,0.0
02/07/2022,02:55:56,0.000,0.0,0.0,0.0
02/07/2022,02:56:55,0.002,0.0,0.0,0.0
02/07/2022,02:57:56,0.000,0.0,0.0,0.0
02/07/2022,02:58:55,0.000,0.0,0.0,0.0
02/07/2022,02:59:55,0.000,0.0,0.0,0.0
02/07/2022,03:00:54,0.001,0.0,0.0,0.0
02/07/2022,03:01:54,0.001,0.0,0.0,0.0
02/07/2022,03:02:55,0.001,0.0,0.0,0.0
02/07/2022,03:03:54,-0.001,0.0,0.0,0.0
02/07/2022,03:04:55,0.001,0.0,0.0,0.0
02/07/2022,03:05:55,0.000,0.0,0.0,0.0
02/07/2022,03:06:54,-0.001,0.0,0.0,0.0
02/07/2022,03:07:55,0.000,0.0,0.0,0.0
02/07/2022,03:09:03,0.000,0.0,0.0,0.0
02/07/2022,03:09:55,0.001,0.0,0.0,0.0
02/07/2022,03:10:57,0.001,0.0,0.0,0.0
02/07/2022,03:11:55,0.000,0.0,0.0,0.0
02/07/2022,03:12:55,0.000,0.0,0.0,0.0
02/07/2022,03:13:55,0.001,0.0,0.0,0.0
02/07/2022,03:14:54,-0.001,0.0,0.0,0.0
02/07/2022,03:15:55,0.000,0.0,0.0,0.0
02/07/2022,03:16:54,0.001,0.0,0.0,0.0
02/07/2022,03:17:55,0.001,0.0,0.0,0.0
02/07/2022,03:19:03,0.001,0.0,0.0,0.0
02/07/2022,03:20:03,-0.000,0.0,0.0,0.0
02/07/2022,03:20:54,0.000,0.0,0.0,0.0
02/07/2022,03:21:55,0.001,0.0,0.0,0.0
02/07/2022,03:22:55,0.001,0.0,0.0,0.0
02/07/2022,03:23:55,0.000,0.0,0.0,0.0
02/07/2022,03:24:54,0.001,0.0,0.0,0.0
02/07/2022,03:25:55,0.001,0.0,0.0,0.0
02/07/2022,03:26:55,0.000,0.0,0.0,0.0
02/07/2022,03:27:55,0.002,0.0,0.0,0.0
02/07/2022,03:28:55,0.001,0.0,0.0,0.0
02/07/2022,03:29:55,0.002,0.0,0.0,0.0
02/07/2022,03:30:55,0.000,0.0,0.0,0.0
02/07/2022,03:32:03,0.001,0.0,0.0,0.0
02/07/2022,03:32:55,0.001,0.0,0.0,0.0
02/07/2022,03:33:55,0.002,0.0,0.0,0.0
02/07/2022,03:35:03,0.002,0.0,0.0,0.0
02/07/2022,03:35:55,0.001,0.0,0.0,0.0
02/07/2022,03:36:55,-0.000,0.0,0.0,0.0
02/07/2022,03:37:55,-0.000,0.0,0.0,0.0
02/07/2022,03:38:55,0.002,0.0,0.0,0.0
02/07/2022,03:39:55,0.001,0.0,0.0,0.0
02/07/2022,03:40:55,0.000,0.0,0.0,0.0
02/07/2022,03:41:55,0.001,0.0,0.0,0.0
02/07/2022,03:42:56,0.001,0.0,0.0,0.0
02/07/2022,03:43:55,0.002,0.0,0.0,0.0
02/07/2022,03:45:04,0.001,0.0,0.0,0.0
02/07/2022,03:46:56,0.001,0.0,0.0,0.0
02/07/2022,03:47:55,0.001,0.0,0.0,0.0
02/07/2022,03:48:55,0.001,0.0,0.0,0.0
02/07/2022,03:49:55,0.002,0.0,0.0,0.0
02/07/2022,03:50:55,0.002,0.0,0.0,0.0
02/07/2022,03:51:55,0.001,0.0,0.0,0.0
02/07/2022,03:52:55,0.002,0.0,0.0,0.0
02/07/2022,03:53:55,0.002,0.0,0.0,0.0
02/07/2022,03:54:55,0.002,0.0,0.0,0.0
02/07/2022,03:55:54,0.002,0.0,0.0,0.0
02/07/2022,03:56:55,0.002,0.0,0.0,0.0
02/07/2022,03:58:03,0.002,0.0,0.0,0.0
02/07/2022,03:58:55,0.002,0.0,0.0,0.0
02/07/2022,03:59:55,0.003,0.0,0.0,0.0
02/07/2022,04:01:03,0.003,0.0,0.0,0.0
02/07/2022,04:02:02,0.003,0.0,0.0,0.0
02/07/2022,04:02:55,0.004,0.0,0.0,0.0
02/07/2022,04:03:55,0.003,0.0,0.0,0.0
02/07/2022,04:04:57,0.003,0.0,0.0,0.0
02/07/2022,04:05:54,0.003,0.0,0.0,0.0
02/07/2022,04:06:55,0.004,0.0,0.0,0.0
02/07/2022,04:07:55,0.004,0.0,0.0,0.0
02/07/2022,04:08:55,0.004,0.0,0.0,0.0
02/07/2022,04:09:55,0.004,0.0,0.0,0.0
02/07/2022,04:10:55,0.004,0.0,0.0,0.0
02/07/2022,04:11:55,0.005,0.0,0.0,0.0
02/07/2022,04:12:55,0.005,0.0,0.0,0.0
02/07/2022,04:13:55,0.005,0.0,0.0,0.0
02/07/2022,04:14:55,0.006,0.0,0.0,0.0
02/07/2022,04:15:55,0.005,0.0,0.0,0.0
02/07/2022,04:16:55,0.005,0.0,0.0,0.0
02/07/2022,04:17:54,0.006,0.0,0.0,0.0
02/07/2022,04:18:55,0.006,0.0,0.0,0.0
02/07/2022,04:19:55,0.006,0.0,0.0,0.0
02/07/2022,04:20:55,0.006,0.0,0.0,0.0
02/07/2022,04:21:55,0.006,0.0,0.0,0.0
02/07/2022,04:22:55,0.008,0.0,0.001,0.001
02/07/2022,04:23:55,0.007,0.0,0.001,0.0
02/07/2022,04:24:54,0.008,0.0,0.001,0.0
02/07/2022,04:25:55,0.008,0.0,0.001,0.0
02/07/2022,04:26:55,0.007,0.0,0.001,0.0
02/07/2022,04:27:55,0.008,0.0,0.001,0.0
02/07/2022,04:28:55,0.009,0.0,0.001,0.0
02/07/2022,04:29:54,0.010,0.0,0.001,0.0
02/07/2022,04:30:55,0.010,0.0,0.002,0.001
02/07/2022,04:31:55,0.010,0.0,0.002,0.0
02/07/2022,04:32:55,0.011,0.0,0.002,0.0
02/07/2022,04:34:03,0.011,0.0,0.002,0.0
02/07/2022,04:34:55,0.011,0.0,0.002,0.0
02/07/2022,04:35:55,0.012,0.0,0.002,0.0
02/07/2022,04:36:55,0.013,0.0,0.003,0.001
02/07/2022,04:38:03,0.012,0.0,0.003,0.0
02/07/2022,04:38:56,0.013,0.0,0.003,0.0
02/07/2022,04:39:55,0.014,0.0,0.003,0.0
02/07/2022,04:41:03,0.013,0.0,0.004,0.001
02/07/2022,04:41:54,0.014,0.0,0.004,0.0
02/07/2022,04:42:55,0.014,0.0,0.004,0.0
02/07/2022,04:43:55,0.015,0.0,0.004,0.0
02/07/2022,04:44:54,0.015,0.0,0.004,0.0
02/07/2022,04:45:54,0.016,0.0,0.005,0.001
02/07/2022,04:46:55,0.016,0.0,0.005,0.0
02/07/2022,04:47:55,0.017,0.0,0.005,0.0
02/07/2022,04:48:55,0.018,0.0,0.006,0.001
02/07/2022,04:49:55,0.018,0.0,0.006,0.0
02/07/2022,04:51:03,0.019,0.0,0.006,0.0
02/07/2022,04:51:54,0.019,0.0,0.007,0.001
02/07/2022,04:52:55,0.020,0.0,0.007,0.0
02/07/2022,04:53:55,0.021,0.0,0.007,0.0
02/07/2022,04:54:55,0.021,0.0,0.008,0.001
02/07/2022,04:55:56,0.022,0.0,0.008,0.0
02/07/2022,04:56:55,0.023,0.0,0.008,0.0
02/07/2022,04:57:55,0.024,0.0,0.009,0.001
02/07/2022,04:58:55,0.024,0.0,0.009,0.0
02/07/2022,04:59:55,0.025,0.0,0.01,0.001
02/07/2022,05:00:54,0.027,0.0,0.01,0.0
02/07/2022,05:01:55,0.027,0.0,0.01,0.0
02/07/2022,05:02:55,0.027,0.0,0.011,0.001
02/07/2022,05:03:55,0.028,0.0,0.011,0.0
02/07/2022,05:04:55,0.029,0.0,0.012,0.001
02/07/2022,05:05:55,0.030,0.0,0.012,0.0
02/07/2022,05:06:56,0.032,0.0,0.013,0.001
02/07/2022,05:07:54,0.031,0.0,0.013,0.0
02/07/2022,05:08:55,0.032,0.0,0.014,0.001
02/07/2022,05:09:55,0.032,0.0,0.014,0.0
02/07/2022,05:10:55,0.034,0.0,0.015,0.001
02/07/2022,05:11:55,0.035,0.0,0.016,0.001
02/07/2022,05:12:55,0.035,0.0,0.016,0.0
02/07/2022,05:13:55,0.036,0.0,0.017,0.001
02/07/2022,05:15:03,0.038,0.0,0.017,0.0
02/07/2022,05:15:54,0.038,0.0,0.018,0.001
02/07/2022,05:16:55,0.039,0.0,0.019,0.001
02/07/2022,05:17:55,0.040,0.0,0.019,0.0
02/07/2022,05:18:55,0.042,0.0,0.02,0.001
02/07/2022,05:19:55,0.044,0.0,0.021,0.001
02/07/2022,05:20:55,0.044,0.0,0.021,0.0
02/07/2022,05:21:55,0.045,0.0,0.022,0.001
02/07/2022,05:22:55,0.046,0.0,0.023,0.001
02/07/2022,05:23:55,0.047,0.0,0.024,0.001
02/07/2022,05:24:55,0.047,0.0,0.024,0.0
02/07/2022,05:25:55,0.048,0.0,0.025,0.001
02/07/2022,05:26:55,0.050,0.0,0.026,0.001
02/07/2022,05:28:03,0.051,0.0,0.027,0.001
02/07/2022,05:28:55,0.053,0.0,0.028,0.001
02/07/2022,05:29:55,0.053,0.0,0.029,0.001
02/07/2022,05:30:55,0.054,0.0,0.029,0.0
02/07/2022,05:31:55,0.056,0.0,0.03,0.001
02/07/2022,05:32:55,0.056,0.0,0.031,0.001
02/07/2022,05:33:55,0.057,0.0,0.032,0.001
02/07/2022,05:34:55,0.057,0.0,0.033,0.001
02/07/2022,05:35:55,0.059,0.0,0.034,0.001
02/07/2022,05:36:55,0.058,0.0,0.035,0.001
02/07/2022,05:38:20,0.061,0.0,0.037,0.002
02/07/2022,05:39:55,0.061,0.0,0.038,0.001
02/07/2022,05:41:03,0.061,0.0,0.039,0.001
02/07/2022,05:41:55,0.060,0.0,0.04,0.001
02/07/2022,05:42:55,0.061,0.0,0.041,0.001
02/07/2022,05:44:03,0.060,0.0,0.042,0.001
02/07/2022,05:44:55,0.059,0.0,0.043,0.001
02/07/2022,05:45:55,0.057,0.0,0.044,0.001
02/07/2022,05:46:55,0.055,0.0,0.045,0.001
02/07/2022,05:47:55,0.055,0.0,0.046,0.001
02/07/2022,05:48:55,0.056,0.0,0.047,0.001
02/07/2022,05:49:55,0.051,0.0,0.048,0.001
02/07/2022,05:50:55,0.050,0.0,0.049,0.001
02/07/2022,05:51:55,0.045,0.0,0.05,0.001
02/07/2022,05:52:55,0.041,0.0,0.05,0.0
02/07/2022,05:53:55,0.036,0.0,0.051,0.001
02/07/2022,05:55:04,0.032,0.0,0.052,0.001
02/07/2022,05:55:55,0.030,0.0,0.052,0.0
02/07/2022,05:56:57,0.029,0.0,0.052,0.0
02/07/2022,05:57:56,0.029,0.0,0.053,0.001
02/07/2022,05:58:55,0.029,0.0,0.053,0.0
02/07/2022,05:59:55,0.027,0.0,0.054,0.001
02/07/2022,06:00:55,0.027,0.0,0.054,0.0
02/07/2022,06:01:56,0.027,0.0,0.055,0.001
02/07/2022,06:02:55,0.029,0.0,0.055,0.0
02/07/2022,06:03:55,0.032,0.0,0.056,0.001
02/07/2022,06:05:03,0.036,0.0,0.056,0.0
02/07/2022,06:05:55,0.040,0.0,0.057,0.001
02/07/2022,06:06:55,0.041,0.0,0.058,0.001
02/07/2022,06:07:55,0.040,0.0,0.058,0.0
02/07/2022,06:08:55,0.039,0.0,0.059,0.001
02/07/2022,06:09:55,0.040,0.0,0.06,0.001
02/07/2022,06:10:56,0.044,0.0,0.06,0.0
02/07/2022,06:11:55,0.048,0.0,0.061,0.001
02/07/2022,06:12:55,0.052,0.0,0.062,0.001
02/07/2022,06:13:55,0.054,0.0,0.063,0.001
02/07/2022,06:14:55,0.058,0.0,0.064,0.001
02/07/2022,06:15:55,0.062,0.0,0.065,0.001
02/07/2022,06:16:55,0.063,0.0,0.066,0.001
02/07/2022,06:17:55,0.065,0.0,0.067,0.001
02/07/2022,06:18:56,0.066,0.0,0.068,0.001
02/07/2022,06:19:55,0.069,0.0,0.069,0.001
02/07/2022,06:21:04,0.073,0.0,0.07,0.001
02/07/2022,06:21:56,0.078,0.0,0.072,0.002
02/07/2022,06:22:55,0.091,0.0,0.073,0.001
02/07/2022,06:24:03,0.115,0.0,0.075,0.002
02/07/2022,06:24:55,0.128,0.0,0.077,0.002
02/07/2022,06:25:57,0.136,0.0,0.079,0.002
02/07/2022,06:26:55,0.138,0.0,0.081,0.002
02/07/2022,06:27:55,0.138,0.0,0.083,0.002
02/07/2022,06:28:56,0.139,0.0,0.086,0.003
02/07/2022,06:29:55,0.148,0.0,0.088,0.002
02/07/2022,06:30:56,0.157,0.0,0.091,0.003
02/07/2022,06:31:55,0.166,0.0,0.093,0.002
02/07/2022,06:32:56,0.174,0.0,0.096,0.003
02/07/2022,06:34:04,0.187,0.0,0.1,0.004
02/07/2022,06:35:56,0.199,0.0,0.106,0.006
02/07/2022,06:36:55,0.206,0.0,0.109,0.003
02/07/2022,06:37:55,0.209,0.0,0.113,0.004
02/07/2022,06:38:55,0.193,0.0,0.116,0.003
02/07/2022,06:39:56,0.208,0.0,0.119,0.003
02/07/2022,06:40:55,0.206,0.0,0.122,0.003
02/07/2022,06:41:55,0.207,0.0,0.126,0.004
02/07/2022,06:42:56,0.215,0.0,0.13,0.004
02/07/2022,06:43:55,0.223,1.0,0.133,0.003
02/07/2022,06:44:55,0.233,1.0,0.137,0.004
02/07/2022,06:45:55,0.265,1.0,0.141,0.004
02/07/2022,06:47:04,0.244,1.0,0.146,0.005
02/07/2022,06:48:03,0.278,1.0,0.15,0.004
02/07/2022,06:48:55,0.276,1.0,0.154,0.004
02/07/2022,06:49:55,0.243,1.0,0.158,0.004
02/07/2022,06:50:55,0.238,1.0,0.163,0.005
02/07/2022,06:51:56,0.241,1.0,0.167,0.004
02/07/2022,06:52:55,0.244,1.0,0.171,0.004
02/07/2022,06:53:55,0.251,1.0,0.175,0.004
02/07/2022,06:54:55,0.258,1.0,0.179,0.004
02/07/2022,06:55:55,0.277,1.0,0.184,0.005
02/07/2022,06:56:55,0.276,1.0,0.189,0.005
02/07/2022,06:57:55,0.308,1.0,0.193,0.004
02/07/2022,06:58:55,0.286,1.0,0.198,0.005
02/07/2022,06:59:55,0.291,1.0,0.203,0.005
02/07/2022,07:01:04,0.335,1.0,0.209,0.006
02/07/2022,07:01:55,0.343,1.0,0.213,0.004
02/07/2022,07:02:55,0.289,1.0,0.218,0.005
02/07/2022,07:03:55,0.305,1.0,0.223,0.005
02/07/2022,07:04:55,0.298,1.0,0.228,0.005
02/07/2022,07:05:56,0.300,1.0,0.233,0.005
02/07/2022,07:06:55,0.330,1.0,0.238,0.005
02/07/2022,07:07:55,0.383,1.0,0.244,0.006
02/07/2022,07:08:55,0.365,1.0,0.249,0.005
02/07/2022,07:09:55,0.347,1.0,0.256,0.007
02/07/2022,07:11:04,0.319,1.0,0.262,0.006
02/07/2022,07:11:55,0.344,1.0,0.267,0.005
02/07/2022,07:12:55,0.366,1.0,0.273,0.006
02/07/2022,07:13:56,0.321,1.0,0.278,0.005
02/07/2022,07:14:55,0.331,1.0,0.283,0.005
02/07/2022,07:15:55,0.348,1.0,0.289,0.006
02/07/2022,07:16:55,0.424,1.0,0.295,0.006
02/07/2022,07:18:02,0.429,1.0,0.303,0.008
02/07/2022,07:18:55,0.401,1.0,0.309,0.006
02/07/2022,07:19:55,0.464,1.0,0.317,0.008
02/07/2022,07:20:55,0.476,1.0,0.324,0.007
02/07/2022,07:21:55,0.485,1.0,0.332,0.008
02/07/2022,07:22:55,0.492,1.0,0.34,0.008
02/07/2022,07:23:55,0.502,1.0,0.349,0.009
02/07/2022,07:24:56,0.510,1.0,0.357,0.008
02/07/2022,07:25:55,0.519,1.0,0.365,0.008
02/07/2022,07:26:56,0.466,1.0,0.374,0.009
02/07/2022,07:27:55,0.530,1.0,0.382,0.008
02/07/2022,07:28:56,0.481,1.0,0.391,0.009
02/07/2022,07:29:55,0.543,1.0,0.399,0.008
02/07/2022,07:30:55,0.544,1.0,0.409,0.01
02/07/2022,07:31:56,0.550,1.0,0.418,0.009
02/07/2022,07:32:55,0.564,1.0,0.427,0.009
02/07/2022,07:34:04,0.577,1.0,0.438,0.011
02/07/2022,07:34:54,0.585,1.0,0.446,0.008
02/07/2022,07:35:55,0.591,1.0,0.456,0.01
02/07/2022,07:37:03,0.598,1.0,0.467,0.011
02/07/2022,07:38:57,0.610,1.0,0.486,0.019
02/07/2022,07:39:55,0.617,1.0,0.496,0.01
02/07/2022,07:40:55,0.623,1.0,0.506,0.01
02/07/2022,07:41:55,0.635,1.0,0.516,0.01
02/07/2022,07:42:55,0.635,1.0,0.527,0.011
02/07/2022,07:44:04,0.662,2.0,0.539,0.012
02/07/2022,07:44:55,0.669,2.0,0.549,0.01
02/07/2022,07:45:55,0.684,2.0,0.56,0.011
02/07/2022,07:47:03,0.674,2.0,0.573,0.013
02/07/2022,07:47:55,0.601,1.0,0.582,0.009
02/07/2022,07:48:56,0.705,2.0,0.592,0.01
02/07/2022,07:50:03,0.699,2.0,0.605,0.013
02/07/2022,07:50:55,0.708,2.0,0.615,0.01
02/07/2022,07:51:55,0.667,2.0,0.627,0.012
02/07/2022,07:52:55,0.726,2.0,0.639,0.012
02/07/2022,07:53:55,0.739,2.0,0.651,0.012
02/07/2022,07:54:55,0.555,1.0,0.662,0.011
02/07/2022,07:55:55,0.744,2.0,0.674,0.012
02/07/2022,07:56:55,0.734,2.0,0.686,0.012
02/07/2022,07:57:55,0.731,2.0,0.699,0.013
02/07/2022,07:58:56,0.665,2.0,0.709,0.01
02/07/2022,07:59:56,0.485,1.0,0.718,0.009
02/07/2022,08:00:55,0.423,1.0,0.726,0.008
02/07/2022,08:01:55,0.339,1.0,0.732,0.006
02/07/2022,08:03:03,0.325,1.0,0.739,0.007
02/07/2022,08:03:55,0.323,1.0,0.743,0.004
02/07/2022,08:04:55,0.348,1.0,0.749,0.006
02/07/2022,08:05:55,0.320,1.0,0.755,0.006
02/07/2022,08:06:56,0.343,1.0,0.76,0.005
02/07/2022,08:07:55,0.356,1.0,0.766,0.006
02/07/2022,08:08:56,0.401,1.0,0.772,0.006
02/07/2022,08:09:55,0.442,1.0,0.779,0.007
02/07/2022,08:10:55,0.458,1.0,0.787,0.008
02/07/2022,08:11:56,0.466,1.0,0.794,0.007
02/07/2022,08:12:56,0.417,1.0,0.802,0.008
02/07/2022,08:13:55,0.428,1.0,0.808,0.006
02/07/2022,08:14:56,0.463,1.0,0.816,0.008
02/07/2022,08:16:03,0.505,1.0,0.825,0.009
02/07/2022,08:16:55,0.551,1.0,0.833,0.008
02/07/2022,08:17:55,0.577,1.0,0.842,0.009
02/07/2022,08:18:55,0.580,1.0,0.852,0.01
02/07/2022,08:19:55,0.591,1.0,0.861,0.009
02/07/2022,08:20:56,0.597,1.0,0.872,0.011
02/07/2022,08:21:55,0.582,1.0,0.881,0.009
02/07/2022,08:22:55,0.522,1.0,0.89,0.009
02/07/2022,08:23:55,0.504,1.0,0.899,0.009
02/07/2022,08:24:56,0.468,1.0,0.907,0.008
02/07/2022,08:25:56,0.426,1.0,0.915,0.008
02/07/2022,08:26:55,0.375,1.0,0.921,0.006
02/07/2022,08:27:55,0.388,1.0,0.927,0.006
02/07/2022,08:28:57,0.463,1.0,0.935,0.008
02/07/2022,08:30:03,0.498,1.0,0.944,0.009
02/07/2022,08:30:55,0.431,1.0,0.951,0.007
02/07/2022,08:31:55,0.423,1.0,0.958,0.007
02/07/2022,08:32:56,0.435,1.0,0.965,0.007
02/07/2022,08:33:55,0.467,1.0,0.972,0.007
02/07/2022,08:34:55,0.450,1.0,0.98,0.008
02/07/2022,08:35:55,0.463,1.0,0.988,0.008
02/07/2022,08:36:55,0.443,1.0,0.995,0.007
02/07/2022,08:37:55,0.430,1.0,1.002,0.007
02/07/2022,08:38:55,0.479,1.0,1.01,0.008
02/07/2022,08:39:55,0.464,1.0,1.018,0.008
02/07/2022,08:40:55,0.524,1.0,1.026,0.008
02/07/2022,08:41:55,0.534,1.0,1.035,0.009
02/07/2022,08:43:03,0.544,1.0,1.045,0.01
02/07/2022,08:43:55,0.547,1.0,1.053,0.008
02/07/2022,08:44:55,0.557,1.0,1.062,0.009
02/07/2022,08:45:55,0.580,1.0,1.072,0.01
02/07/2022,08:46:56,0.711,2.0,1.082,0.01
02/07/2022,08:47:56,0.710,2.0,1.094,0.012
02/07/2022,08:48:56,0.654,2.0,1.106,0.012
02/07/2022,08:49:56,0.589,1.0,1.116,0.01
02/07/2022,08:50:55,0.622,1.0,1.126,0.01
02/07/2022,08:51:55,0.700,2.0,1.137,0.011
02/07/2022,08:52:56,0.748,2.0,1.149,0.012
02/07/2022,08:53:55,0.760,2.0,1.162,0.013
02/07/2022,08:54:56,0.725,2.0,1.174,0.012
02/07/2022,08:56:04,0.766,2.0,1.188,0.014
02/07/2022,08:57:56,0.773,2.0,1.212,0.024
02/07/2022,08:59:05,0.767,2.0,1.227,0.015
02/07/2022,08:59:55,0.741,2.0,1.237,0.01
02/07/2022,09:00:55,0.747,2.0,1.25,0.013
02/07/2022,09:01:55,0.782,2.0,1.263,0.013
02/07/2022,09:02:56,0.779,2.0,1.276,0.013
02/07/2022,09:03:55,0.689,2.0,1.288,0.012
02/07/2022,09:04:55,0.639,1.0,1.299,0.011
02/07/2022,09:05:56,0.644,1.0,1.31,0.011
02/07/2022,09:06:55,0.681,2.0,1.321,0.011
02/07/2022,09:07:56,0.661,2.0,1.332,0.011
02/07/2022,09:08:55,0.631,1.0,1.343,0.011
02/07/2022,09:09:55,0.597,1.0,1.353,0.01
02/07/2022,09:10:56,0.589,1.0,1.363,0.01
02/07/2022,09:12:03,0.647,1.0,1.375,0.012
02/07/2022,09:13:56,0.646,1.0,1.395,0.02
02/07/2022,09:14:55,0.663,2.0,1.405,0.01
02/07/2022,09:15:55,0.640,1.0,1.417,0.012
02/07/2022,09:16:55,0.635,1.0,1.427,0.01
02/07/2022,09:17:55,0.642,1.0,1.437,0.01
02/07/2022,09:18:56,0.704,2.0,1.449,0.012
02/07/2022,09:19:55,0.774,2.0,1.461,0.012
02/07/2022,09:20:55,0.797,2.0,1.474,0.013
02/07/2022,09:22:04,0.800,2.0,1.49,0.016
02/07/2022,09:22:55,0.812,2.0,1.501,0.011
02/07/2022,09:23:55,0.824,2.0,1.515,0.014
02/07/2022,09:25:04,0.779,2.0,1.53,0.015
02/07/2022,09:25:55,0.730,2.0,1.541,0.011
02/07/2022,09:26:56,0.709,2.0,1.553,0.012
02/07/2022,09:28:04,0.747,2.0,1.566,0.013
02/07/2022,09:29:56,0.916,2.0,1.593,0.027
02/07/2022,09:30:56,0.918,2.0,1.608,0.015
02/07/2022,09:32:03,0.899,2.0,1.625,0.017
02/07/2022,09:32:57,0.882,2.0,1.639,0.014
02/07/2022,09:33:55,0.773,2.0,1.652,0.013
02/07/2022,09:34:55,0.766,2.0,1.665,0.013
02/07/2022,09:35:55,0.771,2.0,1.678,0.013
02/07/2022,09:36:56,0.718,2.0,1.69,0.012
02/07/2022,09:38:04,0.696,2.0,1.703,0.013
02/07/2022,09:38:55,0.708,2.0,1.713,0.01
02/07/2022,09:39:55,0.790,2.0,1.726,0.013
02/07/2022,09:41:04,0.840,2.0,1.742,0.016
02/07/2022,09:41:56,0.793,2.0,1.753,0.011
02/07/2022,09:42:56,0.710,2.0,1.766,0.013
02/07/2022,09:43:56,0.762,2.0,1.778,0.012
02/07/2022,09:44:55,0.780,2.0,1.791,0.013
02/07/2022,09:45:55,0.696,2.0,1.803,0.012
02/07/2022,09:47:04,0.754,2.0,1.817,0.014
02/07/2022,09:47:56,0.810,2.0,1.828,0.011
02/07/2022,09:48:55,0.897,2.0,1.843,0.015
02/07/2022,09:49:55,0.938,2.0,1.858,0.015
02/07/2022,09:50:56,0.887,2.0,1.874,0.016
02/07/2022,09:51:55,0.883,2.0,1.888,0.014
02/07/2022,09:52:56,0.977,2.0,1.904,0.016
02/07/2022,09:54:03,1.136,3.0,1.924,0.02
02/07/2022,09:54:55,1.165,3.0,1.941,0.017
02/07/2022,09:55:55,1.160,3.0,1.96,0.019
02/07/2022,09:56:55,1.144,3.0,1.979,0.019
02/07/2022,09:57:56,1.121,3.0,1.998,0.019
02/07/2022,09:58:55,1.141,3.0,2.017,0.019
02/07/2022,09:59:56,1.195,3.0,2.036,0.019
02/07/2022,10:00:55,1.213,3.0,2.056,0.02
02/07/2022,10:01:55,1.179,3.0,2.076,0.02
02/07/2022,10:02:56,1.108,3.0,2.096,0.02
02/07/2022,10:03:55,1.097,3.0,2.113,0.017
02/07/2022,10:04:55,1.099,3.0,2.132,0.019
02/07/2022,10:05:55,1.137,3.0,2.151,0.019
02/07/2022,10:06:55,1.176,3.0,2.17,0.019
02/07/2022,10:07:55,1.175,3.0,2.19,0.02
02/07/2022,10:08:55,1.143,3.0,2.209,0.019
02/07/2022,10:09:56,1.130,3.0,2.228,0.019
02/07/2022,10:10:55,1.177,3.0,2.247,0.019
02/07/2022,10:11:56,1.240,3.0,2.267,0.02